Погода в Нижнем

Россия / Краснодарский край     45°23′46″N   39°13′26″E
темп.,
°C
ветер,
м/с
пор.,
м/с
влажн.,
%
обл.,
%
осадки,
мм/ч
давл.,
гПа
погр.,
м
28 сентября, вт
вт2800:00+11св22640 0.0 101832
03:00+11ссв23652 0.0 101830
06:00+10ссв22651 0.0 101819
09:00+15св23485 0.0 1019447
12:00+18св333734 0.0 10192011
15:00+19ссв433525 0.0 10192070
18:00+16св354721 0.0 102085
21:00+14св385492 0.0 1021169
29 сентября, ср
ср2900:00+14св3755100 0.0 1021235
03:00+13всв4970100 0.0 1021279
06:00+13св51067100 0.0 1022437
09:00+13всв61169100 0.0 1023603
12:00+16всв8105371 0.0 10231060
15:00+17всв894687 0.0 10231614
18:00+14св7115145 0.0 1024809
21:00+11св7135445 0.0 1025693
30 сентября, чт
чт3000:00+10св7125476 0.0 1025664
03:00+9всв613585 0.0 1026482
06:00+8св714575 0.0 1026438
09:00+11всв912420 0.0 10271057
12:00+14всв910320 0.0 10271582
15:00+16всв810290 0.0 10271824
18:00+13всв611360 0.0 1027469
21:00+11всв614410 0.0 1028559
1 октября, пт
пт100:00+9всв614450 0.0 1029528
03:00+8всв613510 0.0 1029398
06:00+7всв613560 0.0 1029359
09:00+11всв813430 0.0 1030899
12:00+15всв911385 0.0 10291610
15:00+17всв911335 0.0 10281830
18:00+14всв612380 0.0 1028455
21:00+11всв612450 0.0 1029429
2 октября, сб
сб200:00+10всв614430 0.0 1029436
03:00+9всв716470 0.0 1029465
06:00+8всв716460 0.0 1029511
09:00+12в915490 0.0 1028914
12:00+17в1013360 0.0 10271441
15:00+18в1012290 0.0 10261620
18:00+15в814330 0.0 1026717
21:00+13всв715380 0.0 1025718